Starlink 32493

operational
NORAD ID: 62025 Int'l Des: 2024-213 Owner: SPXS Country: US Constellation: starlink
LEOCIRCULAR

Starlink 32493について

説明を読み込み中...

リアルタイム位置

3D地球を読み込み中...

次回通過

高度履歴

Altitude vs Time

uPlot chart will show altitude changes over time

軌道要素

1 62025U 24213T 25259.37963246 .00033918 00000-0 11517-2 0 9991
2 62025 53.1616 258.0273 0000369 153.7484 206.3536 15.30210866 46463
Epoch: Sep 16, 2025 • Age: 40 hours

現在のステータス

高度 476.2 km
速度 7.63 km/s
衛星直下点 -4.66°S, 59.96°E
打ち上げ日 Nov 18, 2024
運用期間 0.8 years
タイプ internet

技術仕様

分類 Payload
質量 730.00 kg
乾燥質量 700.00 kg
総質量 730.00 kg
長さ 0.30 m
直径 4.10 m
スパン 29.00 m
形状 Box + pan
製造者 SPXS
バスタイプ Starlink V2M
フェーズステータス In Orbit
所有者/国 SPXS/US

大規模コンステレーション

Loading constellations...